ASIASAT 6

Last updated on Mon Jun 22 2026 00:03:05 GMT+0000 (Coordinated Universal Time)

1 40141U 14052A 26172.55637684 -.00000363 00000+0 00000+0 0 9995 2 40141 0.0406 85.5918 0000873 13.7399 130.6248 1.00271631 43123
UTC large
Height (km)
Speed (km/s)
/
Latitude / Longitude
Inclination (degrees)
Orbital Period (minutes)
Azimuth
Elevation
Range (km)
Doppler Factor

Next 0 passes for location: London (51.5072 / 0.1276)

No passes found over London.
ASIASAT 6